SL-16 R/B (23405 NORAD) Tracking and Keplerian Element Data

This shows tracking and keplerian element data for the satellite.

Feedback or suggestion? Click here.




ElementValue
Catalog23405
NameSL-16 R/B
Epoch Orbit60494
Epoch Day353.91617529
Epoch Year2025
RAAN160.317
Inclination70.982
Eccentricity0.0004967
Argument of Perigee280.4699
Mean Anonmoly79.5864
Mean Motion14.15552934
Decay Rate-4E-08
L11 23405U 94077B 25353.91617529 -.00000004 00000+0 22393-4 0 9996
L22 23405 70.9820 160.3170 0004967 280.4699 79.5864 14.15552934604945



Live tracking and technical data element details for SL-16 R/B (NORAD 23405). SL-16 R/B can be tracked NOW for your location showing map with azimuth and elevation plus other details from your city location.







IsCatalogInMostPopularTable: catalog: 23405, numindb: 605
Update: records affected: 1



GetName: 23405 SL-16 R/B

Hit Count: updated at: Tue, 20 Jan 2026 19:29:18 GMT